Simultaneous Nadir Overpasses (SNOs) Predictions

Prediction of SNOs between NOAA-20 and NOAA-19 Satellite Orbit:

Table of predicted SNOs for the next 14.0 days since TLE Epoch: 3/2/2024
Index Date (NOAA-20) Time (NOAA-20) Lat,Lon (NOAA-20) SZA (NOAA-20 ) Date (NOAA-19) Time (NOAA-19) Lat,Lon (NOAA-19) SZA (NOAA-19 ) Distance(km) Time Diff (sec)
1 03/13/2024 17:27:02 73.09, -90.59 75.85 03/13/2024 17:25:56 73.06, -93.45 76.04 92.55 66
2 03/13/2024 18:17:55 -73.53, 75.73 103.68 03/13/2024 18:16:42 -73.51, 74.86 103.62 27.65 73
3 03/13/2024 19:08:44 73.70,-117.34 76.50 03/13/2024 19:07:41 73.72,-117.39 76.54 2.79 63
4 03/13/2024 19:59:29 -73.74, 49.88 103.47 03/13/2024 19:58:36 -73.72, 49.88 103.48 2.30 53
5 03/13/2024 20:50:15 73.75,-142.85 76.53 03/13/2024 20:49:39 73.73,-142.84 76.52 2.20 36
6 03/13/2024 21:40:59 -73.74, 24.49 103.49 03/13/2024 21:40:34 -73.73, 24.43 103.50 2.28 25
7 03/13/2024 22:31:45 73.76,-168.24 76.51 03/13/2024 22:31:37 73.75,-168.29 76.51 2.11 8
8 03/13/2024 23:22:30 -73.80, -1.02 103.46 03/13/2024 23:22:31 -73.79, -0.90 103.47 3.64 1
9 03/14/2024 00:13:15 73.76, 166.37 76.49 03/14/2024 00:13:35 73.76, 166.25 76.49 3.68 20
10 03/14/2024 01:04:00 -73.81, -26.41 103.48 03/14/2024 01:04:29 -73.81, -26.36 103.49 1.70 29
11 03/14/2024 01:54:46 73.82, 140.86 76.53 03/14/2024 01:55:32 73.83, 140.92 76.52 1.94 46
12 03/14/2024 02:45:30 -73.81, -51.80 103.50 03/14/2024 02:46:27 -73.82, -51.81 103.50 1.45 57
13 03/14/2024 03:36:16 73.83, 115.47 76.51 03/14/2024 03:37:30 73.84, 115.47 76.50 1.51 74
14 03/14/2024 04:27:08 -74.21, -78.16 103.08 03/14/2024 04:28:18 -74.18, -76.39 103.24 53.73 70



Historial Predications of SNOs between NOAA-20 and NOAA-19
